Location: Sungai Gan
(2.8000°N, 113.7833°E)
Time: 22:46:30
(UTC+00:00)

Daily predictions for brighter satellites

Satellite Brightness Start Highest point End
(mag) Time Altitude Azimuth Time Altitude Azimuth Time Altitude Azimuth
SWIFT 4.1 12:03:08 10° WNW 12:05:12 28° WNW 12:05:12 28° WNW
Gbstr 26 Del rocket 4.3 12:11:04 10° NNW 12:19:10 86° NE 12:19:26 84° ESE
Cosmos 2237 Rocket 4.4 12:53:09 10° WSW 12:56:30 20° W 12:56:30 20° W
CZ-3B R/B 4.4 19:27:04 32° SSE 19:27:04 32° SSE 19:32:32 10° SE
ARIANE 5 R/B 4.2 19:48:20 45° E 19:48:20 45° E 19:55:04 10° E
Hubble Space Telescope 3.6 19:51:43 16° E 19:51:43 16° E 19:52:42 10° E
Ariane H10+ 4.2 19:51:12 25° ESE 19:51:12 25° ESE 19:52:39 10° ESE
BLOCK DM-SL R/B 3.9 19:50:54 32° SE 19:50:54 32° SE 19:57:05 10° E
ATLAS 5 CENTAUR R/B 4.3 19:54:20 23° SSW 19:54:20 23° SSW 19:57:08 10° S
ARIANE 5 DEB (SYLDA) 3.8 20:07:26 77° SE 20:07:26 77° SE 20:18:57 10° E
Cosmos 1867 4.2 20:06:33 22° S 20:09:56 54° ESE 20:15:12 10° NE
ARIANE 44P R/B 3.1 20:12:55 74° E 20:12:55 74° E 20:23:35 10° E
ARIANE 5 R/B 2.8 20:13:04 51° W 20:15:36 86° S 20:19:28 10° E
ATLAS 3B CENTAUR R/B 2.7 20:17:17 42° NNE 20:17:17 42° NNE 20:22:56 10° NE
SL-08 R/B 4.1 20:11:41 10° SSE 20:16:08 48° ENE 20:17:42 34° NNE
Cosmos 1680 Rocket 3.9 20:13:57 10° S 20:19:05 61° ESE 20:24:12 10° NNE
Ariane H10+ 3.5 20:22:28 47° WNW 20:25:39 74° N 20:51:58 10° E
Centaur AC-72 4.0 20:21:10 14° SW 20:30:17 43° SSE 20:35:46 10° E
Cosmos 1025 Rocket 4.3 20:28:14 10° SSE 20:32:20 40° E 20:36:23 10° NNE
Longmarch 3A Rocket 3.3 20:35:04 21° ENE 20:35:04 21° ENE 20:36:42 10° E
ARIANE 5 DEB (SYLDA 5A) 3.9 20:32:57 44° WSW 20:35:00 77° S 21:05:41 10° E
MOS 1 Rocket 3.2 20:33:27 10° S 20:37:03 56° SW 20:37:03 56° SW
Spot 1 4.3 20:35:08 10° S 20:40:16 83° WSW 20:43:13 25° NNW
Milstar 3 3.6 20:35:50 30° W 20:41:40 58° NNW 20:49:01 10° NE
Cosmos 389 Rocket 2.8 20:41:20 41° NNE 20:42:22 66° E 20:45:55 10° SSE
Cosmos 1980 Rocket 3.5 20:47:12 22° SW 20:47:12 22° SW 20:50:05 10° SSW
Cosmos 2112 Rocket 3.8 20:42:40 10° SSW 20:47:50 74° WNW 20:53:00 10° N
YAOGAN 6 4.1 20:47:35 10° NNE 20:50:56 37° E 20:54:20 10° S
BLOCK DM-SL R/B 1.5 20:53:48 31° SE 20:53:48 31° SE 20:55:22 10° ESE
Aurora 2 Rocket 2.3 20:54:17 41° N 20:54:17 41° N 20:56:52 10° NE
Cosmos 2341 Rocket 4.4 20:55:19 24° NW 20:58:09 36° W 21:03:46 10° SSW
Cosmos 1908 4.1 20:56:03 10° N 20:59:42 48° E 21:03:23 10° SSE
Cosmos 1441 Rocket 3.2 20:57:30 10° SSW 21:01:13 52° W 21:04:52 10° N
Cosmos 1959 Rocket 4.4 20:55:29 10° NNW 21:01:31 61° W 21:07:40 10° S
USA 229 DEB 4.0 20:54:39 10° NNW 21:02:30 86° WSW 21:10:23 10° SSE
USA 229 4.0 20:54:45 10° NNW 21:02:37 87° WSW 21:10:31 10° SSE
Cosmos 371 Rocket 3.3 21:00:30 10° N 21:05:20 82° E 21:10:10 10° SSE
Cosmos 1975 Rocket 3.8 21:04:46 10° SW 21:08:34 29° W 21:12:23 10° NNW
Cosmos 2366 rocket 4.2 21:04:33 10° NNW 21:10:37 48° W 21:16:40 10° SSW
SL-14 R/B 3.9 21:09:36 10° SSW 21:13:12 33° W 21:16:46 10° NNW
Cosmos 1758 4.1 21:12:26 20° NW 21:14:21 30° W 21:17:56 10° SSW
GEOS 3 Rocket 4.0 21:11:02 10° N 21:15:40 37° WNW 21:20:20 10° SW
Cosmos 1953 2.4 21:12:42 10° N 21:16:40 78° E 21:20:37 10° S
Spelda 30 4.0 21:15:14 14° SW 21:16:48 26° S 21:20:09 10° ESE
Cosmos 1455 Rocket 4.1 21:13:39 10° NNE 21:17:53 48° E 21:22:05 10° SSE
Cosmos 2297 Rocket 2.4 21:12:52 10° S 21:18:31 76° ESE 21:24:07 10° NNE
Nadezhda 3 Rocket 4.5 21:14:37 10° SSW 21:20:10 36° W 21:25:42 10° NNW
H-2A R/B 2.6 21:16:53 10° N 21:20:31 63° WNW 21:24:09 10° SSW
Cosmos 2219 4.1 21:16:03 10° S 21:21:37 54° ESE 21:27:09 10° NNE
CZ-4B R/B 3.7 21:17:55 10° N 21:21:48 72° W 21:25:54 10° SSW
Meteor 1-31 Rocket 2.6 21:18:04 10° N 21:21:49 76° WNW 21:25:37 10° SSW
NOSS 3-1 (A) 4.5 21:16:57 10° NW 21:25:40 57° WSW 21:34:30 10° S
Ariane H10 4.3 21:24:14 16° W 21:27:29 89° N 21:47:48 10° E
Cosmos 44 3.3 21:24:19 10° NW 21:28:31 44° WSW 21:32:35 10° S
Hubble Space Telescope 1.8 21:27:02 14° W 21:29:57 31° SSW 21:33:40 10° SSE
GPS 2-14 Rocket1 2.7 21:33:40 10° WSW 21:37:29 77° SSE 21:41:22 10° ENE
DELTA 2 R/B (1) 4.3 21:34:42 11° WNW 21:39:39 38° SW 21:44:45 10° SSE
SL-16 R/B 2.9 21:40:14 10° NW 21:45:12 32° WSW 21:50:12 10° SSW
Cosmos 2227 Rocket 2.2 21:40:56 10° SSW 21:46:35 83° WNW 21:52:15 10° NNE
Ariane H10 1.3 21:46:30 10° W 21:49:03 70° S 21:51:12 10° E
